Showing default

OPS 6026 (DMSP 4A F1), 2418

Orbit data source: Space-Track

OPS 6026 (DMSP 4A F1), 2418 is a payload satellite owned by USAF SSD (US) in SSO that was launched on Fri, 16 Sep 1966 UTC via a THOR BURNER 2 launch vehicle from the Air Force Western Test Range (AFWTR). Payloads include a variety of satellites, spacecraft, and rockets equipped with specific instruments for various scientific and technological missions. These include communications satellites like Starlink; space stations such as the ISS; scientific satellites like the Hubble; Earth observation satellites from companies like Planet Labs, Umbra, and HawkEye 360; GPS; miniature CubeSats for education and research; and military/defense satellites.

Loading next visibility...
OPS 6026 (DMSP 4A F1) details
Identifier
2418, 1966-082A
Orbit
SSO
Last TLE update4 hours ago
Origin
Flag of USUSAF SSD (US)
ManufacturerRCA/East Windsor
MissionNon-operational Defense Weather
Bus & MotorDMSP BLOCK 4A, Unknown motor
Mass79 kg wet, 79 kg dry
Launch date (UTC)
1966-09-16 (58 years ago)
Launch vehicle
THOR BURNER 2
Launch site
Air Force Western Test Range (AFWTR)
Object type
Payload
Rocket body
Debris
Shape & HBROct Cyl, 0.8 m
Radar Cross Section0.655 m², Medium (>0.1 m² and < 1m²)

Expand to show TLE details & history

TLE from 4 hours ago
0 OPS 6026 (DMSP 4A F1)
1  2418U 66082A   24356.46036096  .00001006  00000-0  28870-3 0  9996
2  2418  98.2676 151.7127 0115620 228.1893 130.9379 14.43235491 54699
Epoch: 2024-12-21T11:02Z
Definitive object data (Epoch: 2024-12-21T11:02:55.186Z)
Latitude0.00001°
Longitude-104.52844°
Altitude805.323 km
Speed7.422 km/s
True Right ascension10h 06m 51s
True Declination0° 00' 00"
Sunlit
Object was in daylight at TLE epoch
Visualization TLE readout
Latitude1.60669°
Longitude75.8721°
Altitude696.417 km
Speed7.536 km/s
Apparent Right ascension23h 46m 55s
Apparent Declination-20° 31' 56"
Sunlit
Object is in daylight
Visualization observer readout
Local Sidereal Time14:14:47
Azimuth69.452° E
Elevation-53.028°
Doppler factor1
Orbital elements
Apogee altitude827.291 km
Perigee altitude662.578 km
Semi-major axis7,123.072 km
Eccentricity0.011562
Inclination98.2676°
RAAN151.7127°
Arg. of periapsis228.1893°
True anomaly131.92932°
Mean anomaly130.9379°
Eccentric anomaly131.43455°
Mean motion3.61029 °/min
BSTAR0.0002887
Orbital period99.71 mins
Loading maneuver chart data...
Loading historical data...
Loading historical data...
Loading historical data...
Loading historical data...
Loading historical data...
Loading historical data...
Loading historical data...
Other satellites on launch #82 in the year 1966 (1966-09-16 UTC)

OPS 6026 (DMSP 4A F1) Visibility forecast

Observer location: undefined°, undefined

Span
Click to sort rows by Start time (UTC) header in descending order
Start Az.
Max El. time (UTC)
Max El. Az.
Max El.
End time (UTC)
End Az.
9 mins2024-12-21 23:16:32.622Z18.395° NNE2024-12-21 23:21:32.622Z130.005° SE42.556°2024-12-21 23:25:32.622Z184.603° SSW
8 mins2024-12-22 10:28:32.622Z160.403° S2024-12-22 10:32:32.622Z16.711° NNE43.84°2024-12-22 10:36:32.622Z349.608° N
|